Weather History for Jamestown, NY

Change the Weather History Date:

Monday, January 23, 2012

  Actual Average Record
Temperature  
Mean Temperature 35 °F -  
Max Temperature 42 °F 29 °F 55 °F (1999)
Min Temperature 28 °F 8 °F -25 °F (1984)
Degree Days  
Heating Degree Days 30    
Moisture  
Dew Point 33 °F    
Average Humidity 89    
Maximum Humidity 93    
Minimum Humidity 81    
Precipitation  
Precipitation 0.00 in - - ()
Sea Level Pressure  
Sea Level Pressure 29.81 in    
Wind  
Wind Speed 15 mph (SSE)    
Max Wind Speed 23 mph    
Max Gust Speed 32 mph    
Visibility 10 miles    
Events      
Averages and records for this station are not official NWS values.
T = Trace of Precipitation, MM = Missing Value Source: NWS Daily Summary

Daily Weather History Graph

Daily Weather History Graph

Search for Another Location

Airport:

Trip Planner

Search our weather history database for the weather conditions in past years. The results will help you decide how hot, cold, wet, or windy it might be!

Date:

Astronomy

Jan. 23, 2012 Rise Set
Actual Time 7:38 AM EST 5:19 PM EST
Civil Twilight 7:08 AM EST 5:49 PM EST
Nautical Twilight 6:34 AM EST 6:23 PM EST
Astronomical Twilight 6:00 AM EST 6:57 PM EST
Moon 7:31 AM EST (1/23) 6:06 PM EST (1/23)
Length of Visible Light 10h 41m
Length of Day
9h 40m
New Moon, 0% of the Moon is Illuminated
Jan 23
New Moon
Jan 30
First Quarter
Feb 7
Full
Feb 14
Last Quarter
Feb 21
New

Hourly Weather History & Observations

Time (EST) Temp. Windchill Dew Point Humidity Pressure Visibility Wind Dir Wind Speed Gust Speed Precip Events Conditions
12:15 AM 28.4 °F 18.0 °F 24.8 °F 86% 30.03 in 10.0 mi South 12.7 mph 20.7 mph N/A   Overcast
12:35 AM 28.4 °F 15.8 °F 26.6 °F 93% 30.02 in 10.0 mi South 18.4 mph 23.0 mph N/A   Overcast
12:55 AM 28.4 °F 16.6 °F 26.6 °F 93% 30.02 in 10.0 mi South 16.1 mph 23.0 mph N/A   Overcast
1:15 AM 30.2 °F 18.1 °F 26.6 °F 86% 30.01 in 10.0 mi South 18.4 mph 26.5 mph N/A   Overcast
1:35 AM 30.2 °F 18.9 °F 26.6 °F 86% 30.02 in 10.0 mi South 16.1 mph 26.5 mph N/A   Overcast
1:55 AM 30.2 °F 18.5 °F 26.6 °F 86% 30.01 in 10.0 mi South 17.3 mph 25.3 mph N/A   Overcast
2:15 AM 30.2 °F 18.5 °F 26.6 °F 86% 30.01 in 10.0 mi South 17.3 mph 25.3 mph N/A   Overcast
2:35 AM 30.2 °F 18.9 °F 26.6 °F 86% 30.00 in 10.0 mi SSE 16.1 mph 26.5 mph N/A   Overcast
2:55 AM 30.2 °F 18.5 °F 28.4 °F 93% 29.99 in 10.0 mi SSE 17.3 mph 25.3 mph N/A   Overcast
3:15 AM 30.2 °F 19.3 °F 28.4 °F 93% 29.97 in 10.0 mi SSE 15.0 mph 21.9 mph N/A   Overcast
3:35 AM 30.2 °F 18.9 °F 28.4 °F 93% 29.97 in 10.0 mi SSE 16.1 mph 24.2 mph N/A   Mostly Cloudy
3:55 AM 30.2 °F 19.3 °F 28.4 °F 93% 29.96 in 10.0 mi SSE 15.0 mph 20.7 mph N/A   Overcast
4:15 AM 30.2 °F 18.5 °F 28.4 °F 93% 29.93 in 10.0 mi SSE 17.3 mph 24.2 mph N/A   Overcast
4:35 AM 32.0 °F 20.5 °F 28.4 °F 87% 29.92 in 10.0 mi SSE 18.4 mph 23.0 mph N/A   Overcast
4:55 AM 32.0 °F 20.1 °F 28.4 °F 87% 29.91 in 10.0 mi South 19.6 mph 24.2 mph N/A   Overcast
5:15 AM 32.0 °F 20.1 °F 28.4 °F 87% 29.89 in 10.0 mi SSE 19.6 mph 24.2 mph N/A   Overcast
5:35 AM 33.8 °F 22.5 °F 28.4 °F 81% 29.88 in 10.0 mi SSE 19.6 mph 26.5 mph N/A   Overcast
5:55 AM 33.8 °F 21.6 °F 30.2 °F 87% 29.86 in 10.0 mi SSE 23.0 mph 32.2 mph N/A   Overcast
6:15 AM 33.8 °F 22.5 °F 30.2 °F 87% 29.84 in 10.0 mi SSE 19.6 mph 28.8 mph N/A   Mostly Cloudy
6:35 AM 33.8 °F 22.8 °F 30.2 °F 87% 29.84 in 10.0 mi South 18.4 mph 32.2 mph N/A   Overcast
6:55 AM 33.8 °F 22.8 °F 30.2 °F 87% 29.85 in 10.0 mi SSE 18.4 mph 29.9 mph N/A   Overcast
7:15 AM 33.8 °F 23.9 °F 30.2 °F 87% 29.85 in 10.0 mi SSE 15.0 mph 24.2 mph N/A   Overcast
7:35 AM 33.8 °F 23.5 °F 30.2 °F 87% 29.85 in 10.0 mi SSE 16.1 mph 23.0 mph N/A   Overcast
7:55 AM 33.8 °F 22.8 °F 30.2 °F 87% 29.85 in 10.0 mi SSE 18.4 mph 27.6 mph N/A   Overcast
8:15 AM 33.8 °F 24.3 °F 30.2 °F 87% 29.85 in 10.0 mi SSE 13.8 mph 25.3 mph N/A   Overcast
8:55 AM 33.8 °F 24.8 °F 32.0 °F 93% 29.85 in 6.0 mi South 12.7 mph 26.5 mph N/A   Overcast
9:15 AM 35.6 °F 28.0 °F 33.8 °F 93% 29.86 in 5.0 mi South 10.4 mph 17.3 mph N/A   Overcast
9:35 AM 35.6 °F 27.5 °F 33.8 °F 93% 29.88 in 7.0 mi South 11.5 mph 18.4 mph N/A   Overcast
9:55 AM 35.6 °F 25.9 °F 33.8 °F 93% 29.87 in 10.0 mi South 16.1 mph 21.9 mph N/A   Overcast
10:15 AM 35.6 °F 27.5 °F 33.8 °F 93% 29.85 in 10.0 mi SSE 11.5 mph - N/A   Overcast
10:35 AM 35.6 °F 28.0 °F 33.8 °F 93% 29.82 in 10.0 mi SSE 10.4 mph - N/A   Overcast
10:55 AM 35.6 °F 25.2 °F 33.8 °F 93% 29.76 in 10.0 mi SE 18.4 mph 27.6 mph N/A   Overcast
11:15 AM 37.4 °F 30.8 °F 35.6 °F 93% 29.76 in 10.0 mi SSE 9.2 mph 20.7 mph N/A   Overcast
11:35 AM 37.4 °F 29.3 °F 35.6 °F 93% 29.74 in 10.0 mi South 12.7 mph 20.7 mph N/A   Overcast
11:55 AM 39.2 °F 33.6 °F 37.4 °F 93% 29.73 in 10.0 mi South 8.1 mph 16.1 mph N/A   Overcast
12:15 PM 39.2 °F 31.6 °F 37.4 °F 93% 29.72 in 10.0 mi South 12.7 mph 18.4 mph N/A   Overcast
12:35 PM 39.2 °F 31.6 °F 37.4 °F 93% 29.70 in 10.0 mi South 12.7 mph 21.9 mph N/A   Overcast
12:55 PM 39.2 °F 31.2 °F 37.4 °F 93% 29.69 in 10.0 mi SSE 13.8 mph 27.6 mph N/A   Overcast
1:15 PM 39.2 °F 30.8 °F 35.6 °F 87% 29.69 in 10.0 mi South 15.0 mph 19.6 mph N/A   Overcast
1:35 PM 39.2 °F 33.6 °F 37.4 °F 93% 29.67 in 10.0 mi SSE 8.1 mph 16.1 mph N/A   Overcast
1:55 PM 39.2 °F 33.0 °F 37.4 °F 93% 29.66 in 10.0 mi South 9.2 mph - N/A   Overcast
2:15 PM 41.0 °F 35.8 °F 37.4 °F 87% 29.65 in 10.0 mi SSE 8.1 mph - N/A   Overcast
2:35 PM 42.8 °F 37.0 °F 37.4 °F 81% 29.64 in 10.0 mi SSE 10.4 mph - N/A   Overcast
2:55 PM 42.8 °F 38.0 °F 37.4 °F 81% 29.64 in 10.0 mi South 8.1 mph - N/A   Overcast
3:35 PM 42.8 °F 37.0 °F 39.2 °F 87% 29.64 in 10.0 mi South 10.4 mph 16.1 mph N/A   Overcast
3:55 PM 42.8 °F 37.5 °F 39.2 °F 87% 29.64 in 10.0 mi SSE 9.2 mph - N/A   Overcast
4:15 PM 42.8 °F 37.5 °F 39.2 °F 87% 29.62 in 10.0 mi SE 9.2 mph - N/A   Overcast
4:35 PM 42.8 °F 39.3 °F 39.2 °F 87% 29.62 in 10.0 mi South 5.8 mph - N/A   Overcast
4:55 PM 42.8 °F 37.5 °F 37.4 °F 81% 29.62 in 8.0 mi SE 9.2 mph - N/A   Overcast
5:15 PM 42.8 °F 37.0 °F 39.2 °F 87% 29.64 in 8.0 mi SSW 10.4 mph - N/A   Overcast
5:35 PM 41.0 °F 34.7 °F 39.2 °F 93% 29.62 in 10.0 mi South 10.4 mph - N/A   Mostly Cloudy
5:55 PM 41.0 °F 35.8 °F 39.2 °F 93% 29.62 in 10.0 mi SSE 8.1 mph 16.1 mph N/A   Mostly Cloudy
6:15 PM 42.8 °F 37.5 °F 39.2 °F 87% 29.62 in 9.0 mi SSE 9.2 mph - N/A   Overcast
6:35 PM 41.0 °F 36.4 °F 39.2 °F 93% 29.63 in 10.0 mi South 6.9 mph - N/A   Overcast
6:55 PM 41.0 °F 33.1 °F 37.4 °F 87% 29.67 in 9.0 mi West 15.0 mph - N/A   Overcast
7:15 PM 41.0 °F 36.4 °F 39.2 °F 93% 29.68 in 10.0 mi WSW 6.9 mph - N/A   Overcast
7:35 PM 39.2 °F 35.0 °F 37.4 °F 93% 29.68 in 10.0 mi WSW 5.8 mph - N/A   Overcast
7:55 PM 41.0 °F - 39.2 °F 93% 29.68 in 10.0 mi Calm Calm - N/A   Overcast
8:15 PM 39.2 °F 33.6 °F 37.4 °F 93% 29.68 in 10.0 mi NW 8.1 mph - N/A   Overcast
8:35 PM 37.4 °F 31.4 °F 35.6 °F 93% 29.71 in 1.8 mi WNW 8.1 mph - N/A   Overcast
8:55 PM 37.4 °F 30.3 °F 35.6 °F 93% 29.72 in 0.5 mi West 10.4 mph - N/A   Overcast
9:15 PM 37.4 °F 28.9 °F 35.6 °F 93% 29.73 in 1.0 mi WSW 13.8 mph - N/A   Overcast
9:35 PM 37.4 °F 28.5 °F 35.6 °F 93% 29.74 in 4.0 mi SW 15.0 mph 23.0 mph N/A   Overcast
9:55 PM 37.4 °F 27.2 °F 33.8 °F 87% 29.75 in 8.0 mi SW 19.6 mph 34.5 mph N/A   Overcast
10:15 PM 37.4 °F 28.2 °F 32.0 °F 81% 29.76 in 10.0 mi SW 16.1 mph 24.2 mph N/A   Overcast
10:35 PM 37.4 °F 28.2 °F 30.2 °F 75% 29.77 in 10.0 mi SW 16.1 mph 24.2 mph N/A   Overcast
10:55 PM 37.4 °F 27.8 °F 30.2 °F 75% 29.77 in 10.0 mi SW 17.3 mph 27.6 mph N/A   Overcast
11:15 PM 37.4 °F 28.2 °F 28.4 °F 70% 29.78 in 10.0 mi SW 16.1 mph 26.5 mph N/A   Overcast
11:35 PM 35.6 °F 25.9 °F 28.4 °F 75% 29.78 in 10.0 mi SW 16.1 mph 27.6 mph N/A   Overcast
11:55 PM 35.6 °F 24.8 °F 28.4 °F 75% 29.79 in 10.0 mi SW 19.6 mph 28.8 mph N/A   Overcast